Harlan, KY

8:16 AM EDT on April 25, 2018 (GMT -0400)
Harlan

Weather History for KI35 - December, 2011

Change the Weather History Date:

Sunday, December 11, 2011

  Actual Average (KLOZ) Record (KLOZ)
Temperature  
Mean Temperature 36 °F -  
Max Temperature 48 °F 48 °F 75 °F (2007)
Min Temperature 23 °F 30 °F 1 °F (1957)
Degree Days  
Heating Degree Days 30    
Moisture  
Dew Point 22 °F    
Average Humidity 72    
Maximum Humidity 100    
Minimum Humidity 22    
Precipitation  
Precipitation 0.00 in - - ()
Sea Level Pressure  
Sea Level Pressure 30.46 in    
Wind  
Wind Speed 1 mph ()    
Max Wind Speed 5 mph    
Max Gust Speed -    
Visibility 10.0 miles    
Events      
Averages and records for this station are not official NWS values.
T = Trace of Precipitation, MM = Missing Value Source: Averaged Metar Reports

Daily Weather History Graph

Daily Weather History Graph

Search for Another Location

Airport or City:

Astronomy

Dec. 11, 2011 Rise Set
Actual Time 7:36 AM EST 5:17 PM EST
Civil Twilight 7:07 AM EST 5:46 PM EST
Nautical Twilight 6:34 AM EST 6:18 PM EST
Astronomical Twilight 6:03 AM EST 6:49 PM EST
Moon 6:26 PM EST (12/11) 8:23 AM EST (12/11)
Length of Visible Light 10h 38m
Length of Day
9h 41m
Full, 99% of the Moon is Illuminated
Dec 11
Full
Dec 17
Last Quarter
Dec 24
New
Jan 1
First Quarter
Jan 9
Full

Hourly Weather History & Observations

Time (EST) Temp. Windchill Dew Point Humidity Pressure Visibility Wind Dir Wind Speed Gust Speed Precip Events Conditions
12:15 AM 26.6 °F - 23.0 °F 86% 30.46 in 10.0 mi Calm Calm - N/A   Clear
12:35 AM 26.6 °F - 23.0 °F 86% 30.46 in 10.0 mi Calm Calm - N/A   Clear
12:55 AM 26.6 °F - 24.8 °F 93% 30.46 in 10.0 mi Calm Calm - N/A   Clear
1:15 AM 26.6 °F - 26.6 °F 100% 30.46 in 10.0 mi Calm Calm - N/A   Clear
1:35 AM 26.6 °F - 24.8 °F 93% 30.46 in 10.0 mi Calm Calm - N/A   Clear
1:55 AM 24.8 °F - 24.8 °F 100% 30.47 in 10.0 mi Calm Calm - N/A   Clear
2:15 AM 24.8 °F - 24.8 °F 100% 30.48 in 10.0 mi Calm Calm - N/A   Clear
2:35 AM 24.8 °F - 24.8 °F 100% 30.48 in 10.0 mi Calm Calm - N/A   Clear
2:55 AM 24.8 °F - 24.8 °F 100% 30.48 in 10.0 mi Calm Calm - N/A   Clear
3:15 AM 24.8 °F - 24.8 °F 100% 30.48 in 10.0 mi Calm Calm - N/A   Clear
3:35 AM 23.0 °F - 23.0 °F 100% 30.48 in 10.0 mi Calm Calm - N/A   Clear
4:15 AM 24.8 °F - 23.0 °F 93% 30.48 in 10.0 mi Calm Calm - N/A   Clear
4:35 AM 23.0 °F - 23.0 °F 100% 30.49 in 10.0 mi Calm Calm - N/A   Clear
4:55 AM 23.0 °F - 23.0 °F 100% 30.49 in 10.0 mi Calm Calm - N/A   Clear
5:15 AM 23.0 °F - 23.0 °F 100% 30.50 in 10.0 mi Calm Calm - N/A   Scattered Clouds
5:35 AM 23.0 °F - 23.0 °F 100% 30.50 in 10.0 mi Calm Calm - N/A   Clear
5:55 AM 23.0 °F - 23.0 °F 100% 30.51 in 10.0 mi Calm Calm - N/A   Scattered Clouds
6:15 AM 23.0 °F - 23.0 °F 100% 30.52 in 10.0 mi Calm Calm - N/A   Clear
6:35 AM 23.0 °F - 23.0 °F 100% 30.52 in 10.0 mi Calm Calm - N/A   Clear
6:55 AM 23.0 °F - 23.0 °F 100% 30.52 in 10.0 mi Calm Calm - N/A   Clear
7:15 AM 23.0 °F 18.4 °F 23.0 °F 100% 30.52 in 10.0 mi East 3.5 mph - N/A   Clear
7:35 AM 23.0 °F 17.0 °F 23.0 °F 100% 30.52 in 10.0 mi ENE 4.6 mph - N/A   Clear
7:55 AM 23.0 °F 17.0 °F 23.0 °F 100% 30.52 in 10.0 mi ESE 4.6 mph - N/A   Clear
8:15 AM 23.0 °F 17.0 °F 23.0 °F 100% 30.52 in 10.0 mi East 4.6 mph - N/A   Clear
8:35 AM 24.8 °F 20.5 °F 23.0 °F 93% 30.53 in 10.0 mi East 3.5 mph - N/A   Clear
8:55 AM 26.6 °F 21.2 °F 24.8 °F 93% 30.52 in 10.0 mi East 4.6 mph - N/A   Clear
9:15 AM 26.6 °F 22.6 °F 24.8 °F 93% 30.52 in 10.0 mi East 3.5 mph - N/A   Clear
9:35 AM 28.4 °F 23.3 °F 23.0 °F 80% 30.53 in 10.0 mi East 4.6 mph - N/A   Clear
9:55 AM 30.2 °F 25.4 °F 24.8 °F 80% 30.53 in 10.0 mi ENE 4.6 mph - N/A   Clear
10:15 AM 32.0 °F 28.7 °F 24.8 °F 75% 30.53 in 10.0 mi East 3.5 mph - N/A   Clear
10:35 AM 32.0 °F - 24.8 °F 75% 30.53 in 10.0 mi Calm Calm - N/A   Clear
10:55 AM 33.8 °F - 23.0 °F 65% 30.52 in 10.0 mi Calm Calm - N/A   Clear
11:15 AM 35.6 °F - 23.0 °F 60% 30.51 in 10.0 mi Calm Calm - N/A   Clear
11:35 AM 37.4 °F - 23.0 °F 56% 30.50 in 10.0 mi Calm Calm - N/A   Clear
12:15 PM 42.8 °F - 17.6 °F 36% 30.49 in 10.0 mi Calm Calm - N/A   Clear
12:35 PM 44.6 °F - 19.4 °F 37% 30.48 in 10.0 mi Calm Calm - N/A   Clear
12:55 PM 44.6 °F - 17.6 °F 34% 30.47 in 10.0 mi Calm Calm - N/A   Clear
1:15 PM 44.6 °F - 15.8 °F 31% 30.46 in 10.0 mi Calm Calm - N/A   Clear
1:35 PM 46.4 °F - 17.6 °F 32% 30.45 in 10.0 mi Calm Calm - N/A   Clear
1:55 PM 46.4 °F - 15.8 °F 29% 30.44 in 10.0 mi Calm Calm - N/A   Clear
2:15 PM 46.4 °F - 14.0 °F 27% 30.43 in 10.0 mi Calm Calm - N/A   Clear
2:35 PM 48.2 °F - 17.6 °F 30% 30.43 in 10.0 mi Calm Calm - N/A   Clear
2:55 PM 46.4 °F - 14.0 °F 27% 30.43 in 10.0 mi Calm Calm - N/A   Clear
3:15 PM 48.2 °F - 12.2 °F 24% 30.42 in 10.0 mi Calm Calm - N/A   Clear
3:35 PM 48.2 °F - 10.4 °F 22% 30.41 in 10.0 mi Calm Calm - N/A   Clear
3:55 PM 48.2 °F - 12.2 °F 24% 30.41 in 10.0 mi Calm Calm - N/A   Clear
4:15 PM 46.4 °F - 12.2 °F 25% 30.41 in 10.0 mi Calm Calm - N/A   Clear
4:35 PM 46.4 °F - 12.2 °F 25% 30.41 in 10.0 mi Calm Calm - N/A   Clear
4:55 PM 44.6 °F - 15.8 °F 31% 30.41 in 10.0 mi Calm Calm - N/A   Clear
5:15 PM 42.8 °F - 14.0 °F 31% 30.42 in 10.0 mi Calm Calm - N/A   Clear
5:35 PM 41.0 °F - 12.2 °F 31% 30.42 in 10.0 mi Calm Calm - N/A   Clear
5:55 PM 39.2 °F - 14.0 °F 36% 30.42 in 10.0 mi Calm Calm - N/A   Clear
6:15 PM 37.4 °F - 21.2 °F 52% 30.43 in 10.0 mi Calm Calm - N/A   Clear
6:35 PM 35.6 °F - 21.2 °F 56% 30.43 in 10.0 mi Calm Calm - N/A   Clear
6:55 PM 35.6 °F - 21.2 °F 56% 30.43 in 10.0 mi Calm Calm - N/A   Clear
7:15 PM 33.8 °F - 23.0 °F 65% 30.43 in 10.0 mi Calm Calm - N/A   Clear
7:35 PM 32.0 °F - 24.8 °F 75% 30.43 in 10.0 mi Calm Calm - N/A   Clear
7:55 PM 33.8 °F - 23.0 °F 65% 30.44 in 10.0 mi Calm Calm - N/A   Clear
8:15 PM 32.0 °F 28.7 °F 24.8 °F 75% 30.44 in 10.0 mi East 3.5 mph - N/A   Clear
8:35 PM 32.0 °F 28.7 °F 24.8 °F 75% 30.44 in 10.0 mi ESE 3.5 mph - N/A   Clear
8:55 PM 32.0 °F - 24.8 °F 75% 30.44 in 10.0 mi Calm Calm - N/A   Clear
9:15 PM 30.2 °F - 26.6 °F 86% 30.44 in 10.0 mi Calm Calm - N/A   Clear
9:35 PM 32.0 °F - 24.8 °F 75% 30.43 in 10.0 mi Calm Calm - N/A   Clear
9:55 PM 30.2 °F - 26.6 °F 86% 30.43 in 10.0 mi Calm Calm - N/A   Clear
10:15 PM 30.2 °F 26.7 °F 26.6 °F 86% 30.42 in 10.0 mi East 3.5 mph - N/A   Clear
10:35 PM 30.2 °F - 26.6 °F 86% 30.42 in 10.0 mi Calm Calm - N/A   Clear
10:55 PM 30.2 °F - 26.6 °F 86% 30.42 in 10.0 mi Calm Calm - N/A   Clear
11:15 PM 30.2 °F 26.7 °F 26.6 °F 86% 30.42 in 10.0 mi ENE 3.5 mph - N/A   Clear
11:35 PM 28.4 °F 23.3 °F 26.6 °F 93% 30.42 in 10.0 mi East 4.6 mph - N/A   Clear
11:55 PM 28.4 °F - 26.6 °F 93% 30.42 in 10.0 mi Calm Calm - N/A   Clear